NDT,Max TemperatureF,Mean TemperatureF,Min TemperatureF,Max Dew PointF,MeanDew PointF,Min DewpointF,Max Humidity, Mean Humidity, Min Humidity, Max Sea Level PressureIn, Mean Sea Level PressureIn, Min Sea Level PressureIn, Max VisibilityMiles, Mean VisibilityMiles, Min VisibilityMiles, Max Wind SpeedMPH, Mean Wind SpeedMPH, Max Gust SpeedMPH,PrecipitationIn, CloudCover, Events, WindDirDegrees
2012-10-1,65,60,54,62,58,50,94,88,82,30.26,30.07,29.79,,,,24,14,32,0.51,,,145
2012-10-2,61,59,57,63,56,53,96,87,75,29.77,29.68,29.65,,,,26,17,36,0.02,,,233
2012-10-3,61,58,53,55,53,49,92,82,73,29.72,29.62,29.58,,,,31,23,40,0.04,,,305
2012-10-4,54,52,50,51,48,46,93,85,77,30.04,29.92,29.75,,,,30,25,39,0.00,,,11
2012-10-5,54,52,49,50,47,44,93,84,65,30.02,29.99,29.96,,,,21,15,28,0.00,,,50
2012-10-6,57,52,46,47,45,43,90,80,60,30.05,30.00,29.96,,,,8,5,,0.00,,,2
2012-10-7,62,54,47,57,51,45,92,84,69,30.11,30.05,30.02,,,,22,12,29,0.00,,,190
2012-10-8,67,61,55,63,58,52,95,91,86,30.14,30.05,29.92,,,,33,17,44,0.02,,,202
2012-10-9,54,50,47,51,41,35,86,67,45,30.42,30.33,30.10,,,,24,15,,0.00,,,333
2012-10-10,55,49,43,43,41,40,90,73,53,30.34,30.23,30.15,,,,16,10,,0.00,,,75
2012-10-11,60,54,47,55,48,41,94,81,61,30.13,29.82,29.54,,,,36,17,46,0.39,,,119
2012-10-12,54,51,48,46,41,36,77,65,50,30.00,29.92,29.76,,,,38,32,50,0.02,,,242
2012-10-13,56,49,42,52,37,26,89,69,41,29.92,29.72,29.62,,,,26,22,34,0.28,,,295
2012-10-14,47,44,41,35,31,27,64,53,38,30.09,30.05,29.94,,,,34,27,43,0.00,,,276
2012-10-15,47,45,43,41,37,34,90,68,53,30.08,30.06,30.03,,,,24,15,32,0.00,,,257
2012-10-16,66,54,43,61,55,42,94,87,74,30.05,29.92,29.66,,,,31,14,41,0.12,,,184
2012-10-17,60,54,48,63,52,43,96,88,74,29.69,29.66,29.62,,,,29,22,40,0.03,,,231
2012-10-18,52,47,42,45,40,36,81,72,52,30.11,29.84,29.62,,,,23,17,26,0.00,,,312
2012-10-19,53,47,41,45,39,36,82,71,55,30.33,30.25,30.14,,,,17,12,,0.00,,,306
2012-10-20,53,50,46,49,47,43,91,86,75,30.36,30.31,30.23,,,,14,9,,0.00,,,220
2012-10-21,61,54,47,56,52,44,91,86,78,30.22,29.98,29.64,,,,25,13,34,0.39,,,160
2012-10-22,57,54,50,57,52,49,97,94,87,29.63,29.59,29.49,,,,28,18,39,0.22,,,204
2012-10-23,53,50,48,49,46,44,95,86,76,29.69,29.61,29.57,,,,18,9,,0.00,,,225
2012-10-24,49,46,43,45,38,35,84,70,53,29.80,29.75,29.69,,,,16,11,,0.00,,,295
2012-10-25,44,42,41,42,39,37,97,84,71,29.81,29.74,29.67,,,,34,22,47,0.00,,,354
2012-10-26,50,46,42,46,44,39,96,89,76,29.73,29.67,29.59,,,,34,27,41,0.12,,,1
2012-10-27,51,48,46,50,48,46,96,94,87,29.90,29.81,29.67,,,,25,21,33,0.02,,,29
2012-10-28,55,52,48,52,50,48,96,92,86,30.22,30.04,29.91,,,,22,18,30,0.02,,,49
2012-10-29,57,52,48,53,50,48,95,91,81,30.40,30.31,30.22,,,,15,13,,0.00,,,53
2012-10-30,52,49,45,47,45,43,93,86,75,30.45,30.42,30.40,,,,16,10,18,0.00,,,53
2012-10-31,50,45,40,45,42,40,96,89,71,30.39,30.28,30.16,,,,8,5,,0.00,,,80